KLM65C EHAM-EGLC

Flight info

Callsign KLM65C
Flight time 0h 53m
Altitude 20000
Route IDRID L980 XAMAN
Aircraft B736/M-SDE2E3FGHIRWXY/LB1

Departure

Time 2026-05-06 15:21
Airport Amsterdam Airport Schiphol (EHAM)

Arrival

Time 2026-05-06 16:14
Airport London City Airport (EGLC)
Time Latitude Longitude Altitude Speed Heading
2026-05-06 14:50 52.30985 4.75354 -3 ft 0 kts 149°
2026-05-06 15:05 52.30991 4.75348 -3 ft 3 kts 149°
2026-05-06 15:05 52.31007 4.75333 -3 ft 3 kts 149°
2026-05-06 15:05 52.31021 4.75314 -3 ft 3 kts 93°
2026-05-06 15:05 52.31020 4.75299 -3 ft 0 kts 62°
2026-05-06 15:12 52.31022 4.75305 -3 ft 2 kts 62°
2026-05-06 15:12 52.31045 4.75350 -3 ft 7 kts 48°
2026-05-06 15:13 52.31092 4.75413 -3 ft 10 kts 25°
2026-05-06 15:13 52.31170 4.75419 -3 ft 13 kts
2026-05-06 15:13 52.31263 4.75421 -3 ft 13 kts 359°
2026-05-06 15:13 52.31354 4.75418 -4 ft 13 kts 359°
2026-05-06 15:14 52.31422 4.75348 -4 ft 13 kts 284°
2026-05-06 15:14 52.31418 4.75208 -4 ft 12 kts 267°
2026-05-06 15:14 52.31414 4.75070 -4 ft 12 kts 268°
2026-05-06 15:14 52.31411 4.74935 -4 ft 12 kts 268°
2026-05-06 15:15 52.31407 4.74788 -3 ft 14 kts 266°
2026-05-06 15:15 52.31398 4.74616 -3 ft 16 kts 263°
2026-05-06 15:15 52.31389 4.74429 -3 ft 16 kts 264°
2026-05-06 15:15 52.31377 4.74246 -3 ft 16 kts 266°
2026-05-06 15:16 52.31312 4.74126 -3 ft 16 kts 184°
2026-05-06 15:16 52.31204 4.74122 -4 ft 15 kts 181°
2026-05-06 15:16 52.31101 4.74114 -4 ft 15 kts 181°
2026-05-06 15:16 52.31001 4.74103 -4 ft 14 kts 184°
2026-05-06 15:17 52.30906 4.74093 -4 ft 14 kts 182°
2026-05-06 15:17 52.30813 4.74084 -4 ft 13 kts 184°
2026-05-06 15:17 52.30724 4.74075 -4 ft 13 kts 183°
2026-05-06 15:17 52.30638 4.74057 -3 ft 12 kts 204°
2026-05-06 15:18 52.30604 4.73946 -3 ft 8 kts 293°
2026-05-06 15:18 52.30609 4.73937 -3 ft 0 kts 315°
2026-05-06 15:19 52.30611 4.73934 -3 ft 2 kts 315°
2026-05-06 15:19 52.30654 4.73895 -4 ft 13 kts 341°
2026-05-06 15:19 52.30753 4.73816 -2 ft 18 kts 333°
2026-05-06 15:19 52.30806 4.73787 1 ft 0 kts
2026-05-06 15:20 52.30912 4.73798 -3 ft 46 kts
2026-05-06 15:21 52.31516 4.73869 -6 ft 124 kts
2026-05-06 15:21 52.32176 4.73958 49 ft 160 kts
2026-05-06 15:21 52.33374 4.73962 609 ft 179 kts
2026-05-06 15:21 52.34607 4.73921 1679 ft 173 kts
2026-05-06 15:22 52.36279 4.73834 2660 ft 200 kts
2026-05-06 15:22 52.37792 4.73754 2961 ft 237 kts 356°
2026-05-06 15:22 52.38893 4.73183 3401 ft 256 kts 334°
2026-05-06 15:22 52.40196 4.71150 4475 ft 268 kts 306°
2026-05-06 15:23 52.40796 4.68222 5575 ft 277 kts 276°
2026-05-06 15:23 52.40494 4.65166 6884 ft 273 kts 248°
2026-05-06 15:23 52.39579 4.62399 7873 ft 279 kts 241°
2026-05-06 15:23 52.38636 4.59658 8932 ft 282 kts 242°
2026-05-06 15:24 52.37633 4.56796 9870 ft 289 kts 240°
2026-05-06 15:24 52.36333 4.54214 10591 ft 306 kts 223°
2026-05-06 15:24 52.34619 4.51910 11060 ft 327 kts 221°
2026-05-06 15:24 52.32932 4.49382 11978 ft 329 kts 227°
2026-05-06 15:25 52.31406 4.46589 13058 ft 329 kts 232°
2026-05-06 15:25 52.30078 4.43693 14014 ft 332 kts 237°
2026-05-06 15:25 52.29563 4.42449 14404 ft 331 kts 238°
2026-05-06 15:27 52.29362 4.41947 14575 ft 330 kts 239°
2026-05-06 15:27 52.28713 4.40265 15108 ft 331 kts 240°
2026-05-06 15:28 52.27547 4.37029 16211 ft 327 kts 241°
2026-05-06 15:28 52.26447 4.33794 17388 ft 324 kts 242°
2026-05-06 15:28 52.25387 4.30560 18462 ft 322 kts 243°
2026-05-06 15:28 52.24350 4.27332 19423 ft 321 kts 244°
2026-05-06 15:29 52.23312 4.24061 19779 ft 325 kts 243°
2026-05-06 15:29 52.22277 4.20786 19896 ft 330 kts 243°
2026-05-06 15:29 52.21230 4.17464 19902 ft 327 kts 244°
2026-05-06 15:29 52.20196 4.14182 19893 ft 324 kts 244°
2026-05-06 15:30 52.19168 4.10920 19909 ft 322 kts 244°
2026-05-06 15:30 52.18139 4.07655 19919 ft 326 kts 243°
2026-05-06 15:30 52.17096 4.04351 19900 ft 330 kts 243°
2026-05-06 15:30 52.16047 4.01033 19916 ft 328 kts 243°
2026-05-06 15:31 52.15008 3.97749 19908 ft 322 kts 244°
2026-05-06 15:31 52.13982 3.94514 19896 ft 322 kts 243°
2026-05-06 15:31 52.12951 3.91266 19911 ft 323 kts 243°
2026-05-06 15:32 52.10792 3.84857 19904 ft 323 kts 241°
2026-05-06 15:32 52.09698 3.81691 19906 ft 319 kts 242°
2026-05-06 15:32 52.08639 3.78508 19923 ft 319 kts 243°
2026-05-06 15:32 52.07610 3.75314 19904 ft 322 kts 243°
2026-05-06 15:33 52.06587 3.72075 19927 ft 320 kts 244°
2026-05-06 15:33 52.05584 3.68860 19926 ft 319 kts 244°
2026-05-06 15:33 52.04587 3.65646 19923 ft 319 kts 244°
2026-05-06 15:33 52.03588 3.62420 19913 ft 319 kts 244°
2026-05-06 15:34 52.02596 3.59214 19918 ft 323 kts 244°
2026-05-06 15:34 52.01588 3.55963 19906 ft 322 kts 244°
2026-05-06 15:34 52.00586 3.52741 19912 ft 318 kts 244°
2026-05-06 15:34 51.99572 3.49561 19911 ft 318 kts 240°
2026-05-06 15:35 51.98316 3.46519 19932 ft 324 kts 235°
2026-05-06 15:35 51.96981 3.43596 19926 ft 329 kts 234°
2026-05-06 15:35 51.95602 3.40617 19924 ft 327 kts 234°
2026-05-06 15:35 51.94259 3.37705 19906 ft 320 kts 234°
2026-05-06 15:36 51.92941 3.34827 19921 ft 317 kts 234°
2026-05-06 15:36 51.91617 3.31921 19928 ft 322 kts 234°
2026-05-06 15:36 51.90287 3.28991 19929 ft 323 kts 234°
2026-05-06 15:36 51.88961 3.26073 19937 ft 320 kts 235°
2026-05-06 15:37 51.87646 3.23182 19933 ft 318 kts 235°
2026-05-06 15:37 51.86337 3.20285 19922 ft 322 kts 237°
2026-05-06 15:37 51.85295 3.17081 19943 ft 323 kts 249°
2026-05-06 15:37 51.84662 3.13606 19932 ft 321 kts 260°
2026-05-06 15:38 51.84379 3.10050 19926 ft 318 kts 264°
2026-05-06 15:38 51.84161 3.06484 19925 ft 320 kts 264°
2026-05-06 15:38 51.83950 3.02895 19925 ft 321 kts 264°
2026-05-06 15:38 51.83774 2.99283 19722 ft 328 kts 270°
2026-05-06 15:39 51.83664 2.95623 19816 ft 321 kts 264°
2026-05-06 15:39 51.83400 2.92056 19857 ft 318 kts 262°
2026-05-06 15:39 51.83116 2.88516 19919 ft 317 kts 262°
2026-05-06 15:39 51.82843 2.84952 19936 ft 322 kts 263°
2026-05-06 15:40 51.82581 2.81333 19947 ft 324 kts 263°
2026-05-06 15:40 51.82331 2.77726 19930 ft 321 kts 263°
2026-05-06 15:40 51.82090 2.74173 19936 ft 318 kts 263°
2026-05-06 15:40 51.81850 2.70625 19939 ft 318 kts 263°
2026-05-06 15:41 51.81608 2.67078 19946 ft 317 kts 263°
2026-05-06 15:41 51.81366 2.63540 19934 ft 317 kts 263°
2026-05-06 15:41 51.81122 2.59999 19941 ft 317 kts 263°
2026-05-06 15:41 51.80875 2.56441 19937 ft 319 kts 263°
2026-05-06 15:42 51.80627 2.52880 19952 ft 319 kts 263°
2026-05-06 15:42 51.80377 2.49307 19900 ft 321 kts 263°
2026-05-06 15:42 51.80124 2.45708 19574 ft 322 kts 263°
2026-05-06 15:42 51.79870 2.42099 19176 ft 323 kts 263°
2026-05-06 15:43 51.79617 2.38512 18785 ft 320 kts 263°
2026-05-06 15:43 51.79367 2.34993 18392 ft 318 kts 263°
2026-05-06 15:43 51.79116 2.31464 17964 ft 316 kts 263°
2026-05-06 15:43 51.78865 2.27956 17527 ft 313 kts 263°
2026-05-06 15:44 51.78614 2.24476 17119 ft 310 kts 264°
2026-05-06 15:44 51.78373 2.21038 16713 ft 307 kts 264°
2026-05-06 15:44 51.78165 2.17619 16318 ft 304 kts 265°
2026-05-06 15:44 51.77970 2.14226 15920 ft 303 kts 265°
2026-05-06 15:45 51.77777 2.10855 15534 ft 301 kts 265°
2026-05-06 15:45 51.77583 2.07499 15153 ft 298 kts 265°
2026-05-06 15:45 51.77388 2.04178 14774 ft 297 kts 265°
2026-05-06 15:45 51.77349 2.03508 14698 ft 296 kts 265°
2026-05-06 15:46 51.77229 2.01480 14465 ft 295 kts 265°
2026-05-06 15:46 51.77031 1.98148 14082 ft 294 kts 266°
2026-05-06 15:46 51.76837 1.94915 13708 ft 293 kts 266°
2026-05-06 15:46 51.76641 1.91651 13287 ft 292 kts 265°
2026-05-06 15:47 51.76602 1.91012 13206 ft 292 kts 265°
2026-05-06 15:47 51.76404 1.87753 12811 ft 290 kts 265°
2026-05-06 15:47 51.76207 1.84522 12426 ft 288 kts 265°
2026-05-06 15:47 51.76011 1.81313 12048 ft 287 kts 265°
2026-05-06 15:48 51.75814 1.78125 11678 ft 285 kts 265°
2026-05-06 15:48 51.75619 1.74950 11308 ft 283 kts 265°
2026-05-06 15:48 51.75423 1.71790 10938 ft 282 kts 266°
2026-05-06 15:48 51.75228 1.68646 10573 ft 281 kts 265°
2026-05-06 15:49 51.75031 1.65511 10217 ft 280 kts 265°
2026-05-06 15:49 51.74837 1.62437 10089 ft 270 kts 266°
2026-05-06 15:49 51.74649 1.59461 9884 ft 264 kts 266°
2026-05-06 15:49 51.74462 1.56514 9537 ft 264 kts 266°
2026-05-06 15:50 51.74276 1.53600 9353 ft 256 kts 266°
2026-05-06 15:50 51.74095 1.50786 9227 ft 248 kts 265°
2026-05-06 15:50 51.73920 1.48062 9110 ft 241 kts 266°
2026-05-06 15:50 51.73741 1.45366 9001 ft 243 kts 262°
2026-05-06 15:51 51.73088 1.42875 8958 ft 245 kts 230°
2026-05-06 15:51 51.71732 1.41245 8969 ft 243 kts 208°
2026-05-06 15:51 51.70198 1.40119 8956 ft 241 kts 204°
2026-05-06 15:51 51.68659 1.39060 8953 ft 240 kts 205°
2026-05-06 15:52 51.67122 1.37989 8954 ft 240 kts 205°
2026-05-06 15:52 51.65598 1.36903 8925 ft 241 kts 207°
2026-05-06 15:52 51.64313 1.35081 8380 ft 252 kts 239°
2026-05-06 15:52 51.63424 1.32681 8124 ft 248 kts 241°
2026-05-06 15:53 51.62556 1.30324 7971 ft 241 kts 241°
2026-05-06 15:53 51.61702 1.28044 7836 ft 234 kts 240°
2026-05-06 15:53 51.60869 1.25853 7716 ft 232 kts 240°
2026-05-06 15:53 51.60006 1.23613 7611 ft 232 kts 240°
2026-05-06 15:54 51.59158 1.21433 7506 ft 233 kts 240°
2026-05-06 15:54 51.58293 1.19223 7387 ft 234 kts 240°
2026-05-06 15:54 51.57422 1.17011 7267 ft 235 kts 239°
2026-05-06 15:54 51.56544 1.14789 7154 ft 236 kts 239°
2026-05-06 15:55 51.55660 1.12560 7039 ft 237 kts 239°
2026-05-06 15:55 51.54772 1.10323 6918 ft 238 kts 240°
2026-05-06 15:55 51.53879 1.08076 6810 ft 239 kts 239°
2026-05-06 15:55 51.52982 1.05826 6682 ft 239 kts 239°
2026-05-06 15:56 51.52086 1.03579 6564 ft 239 kts 239°
2026-05-06 15:56 51.51191 1.01337 6444 ft 238 kts 239°
2026-05-06 15:56 51.50298 0.99103 6320 ft 237 kts 239°
2026-05-06 15:56 51.49409 0.96885 6220 ft 235 kts 239°
2026-05-06 15:57 51.48526 0.94689 6096 ft 236 kts 237°
2026-05-06 15:57 51.47692 0.92412 6040 ft 236 kts 251°
2026-05-06 15:57 51.47540 0.89851 6043 ft 230 kts 275°
2026-05-06 15:57 51.47644 0.87296 6025 ft 230 kts 275°
2026-05-06 15:58 51.47747 0.84743 6023 ft 229 kts 275°
2026-05-06 15:58 51.47848 0.82183 6036 ft 229 kts 274°
2026-05-06 15:58 51.47947 0.79627 6037 ft 230 kts 274°
2026-05-06 15:58 51.48044 0.77068 6038 ft 229 kts 275°
2026-05-06 15:59 51.48139 0.74552 5860 ft 226 kts 274°
2026-05-06 15:59 51.48234 0.72018 5570 ft 227 kts 275°
2026-05-06 15:59 51.48328 0.69489 5303 ft 229 kts 274°
2026-05-06 15:59 51.48425 0.66912 4975 ft 231 kts 274°
2026-05-06 16:00 51.48519 0.64365 4673 ft 232 kts 275°
2026-05-06 16:00 51.48613 0.61774 4356 ft 233 kts 276°
2026-05-06 16:00 51.48677 0.60021 4137 ft 233 kts 275°
2026-05-06 16:00 51.48796 0.56666 4004 ft 221 kts 277°
2026-05-06 16:01 51.48880 0.54273 3995 ft 212 kts 275°
2026-05-06 16:01 51.48966 0.51946 3988 ft 208 kts 275°
2026-05-06 16:01 51.49053 0.49629 3991 ft 208 kts 277°
2026-05-06 16:01 51.49105 0.48058 4000 ft 209 kts 275°
2026-05-06 16:02 51.48768 0.45802 4002 ft 213 kts 241°
2026-05-06 16:02 51.48012 0.43788 4008 ft 214 kts 241°
2026-05-06 16:02 51.47245 0.41696 3894 ft 222 kts 241°
2026-05-06 16:02 51.46457 0.39549 3679 ft 223 kts 241°
2026-05-06 16:03 51.45676 0.37420 3476 ft 220 kts 243°
2026-05-06 16:03 51.44903 0.35315 3255 ft 218 kts 243°
2026-05-06 16:03 51.44132 0.33218 2970 ft 220 kts 241°
2026-05-06 16:03 51.43359 0.31091 2662 ft 222 kts 245°
2026-05-06 16:04 51.43055 0.28733 2360 ft 215 kts 275°
2026-05-06 16:04 51.43144 0.26375 2077 ft 209 kts 277°
2026-05-06 16:04 51.43227 0.24138 1990 ft 192 kts 277°
2026-05-06 16:04 51.43297 0.22102 1982 ft 177 kts 277°
2026-05-06 16:05 51.43364 0.20138 1984 ft 176 kts 277°
2026-05-06 16:05 51.43432 0.18188 1996 ft 174 kts 277°
2026-05-06 16:05 51.43498 0.16265 1994 ft 173 kts 278°
2026-05-06 16:05 51.43562 0.14338 1985 ft 174 kts 278°
2026-05-06 16:06 51.43627 0.12402 2003 ft 173 kts 277°
2026-05-06 16:06 51.43689 0.10503 1991 ft 165 kts 277°
2026-05-06 16:06 51.43744 0.08732 2000 ft 158 kts 277°
2026-05-06 16:06 51.43799 0.06987 1996 ft 156 kts 277°
2026-05-06 16:07 51.43855 0.05289 2003 ft 150 kts 277°
2026-05-06 16:07 51.43907 0.03643 2041 ft 145 kts 277°
2026-05-06 16:07 51.43961 0.02033 2027 ft 142 kts 282°
2026-05-06 16:07 51.44026 0.00470 2012 ft 140 kts 279°
2026-05-06 16:08 51.44073 -0.01130 1997 ft 145 kts 278°
2026-05-06 16:08 51.44120 -0.02765 2002 ft 146 kts 277°
2026-05-06 16:08 51.44166 -0.04365 1987 ft 142 kts 276°
2026-05-06 16:08 51.44213 -0.05970 1995 ft 147 kts 278°
2026-05-06 16:09 51.44262 -0.07584 2004 ft 147 kts 278°
2026-05-06 16:09 51.44325 -0.09244 1995 ft 146 kts 283°
2026-05-06 16:09 51.44846 -0.10475 1987 ft 135 kts 340°
2026-05-06 16:09 51.45749 -0.10813 1987 ft 136 kts 348°
2026-05-06 16:10 51.46636 -0.11163 1971 ft 126 kts 348°
2026-05-06 16:10 51.47469 -0.11486 1970 ft 124 kts 347°
2026-05-06 16:10 51.48306 -0.11832 2005 ft 123 kts 348°
2026-05-06 16:10 51.49120 -0.11680 1994 ft 122 kts 33°
2026-05-06 16:11 51.49703 -0.10673 2007 ft 123 kts 43°
2026-05-06 16:11 51.50284 -0.09655 2010 ft 124 kts 43°
2026-05-06 16:11 51.50846 -0.08591 1981 ft 129 kts 59°
2026-05-06 16:11 51.50884 -0.07148 2007 ft 133 kts 90°
2026-05-06 16:12 51.50865 -0.05686 2011 ft 131 kts 85°
2026-05-06 16:12 51.50832 -0.04234 2004 ft 130 kts 85°
2026-05-06 16:12 51.50786 -0.02747 1725 ft 137 kts 88°
2026-05-06 16:12 51.50738 -0.01275 1410 ft 129 kts 86°
2026-05-06 16:13 51.50693 0.00110 1045 ft 119 kts 86°
2026-05-06 16:13 51.50655 0.01363 756 ft 111 kts 84°
2026-05-06 16:13 51.50614 0.02638 531 ft 127 kts 87°
2026-05-06 16:13 51.50558 0.04136 181 ft 137 kts 87°
2026-05-06 16:14 51.50526 0.05576 24 ft 116 kts 95°
2026-05-06 16:14 51.50500 0.06568 24 ft 70 kts 95°
2026-05-06 16:14 51.50351 0.06866 18 ft 5 kts 181°
2026-05-06 16:14 51.50341 0.06794 18 ft 11 kts 273°
2026-05-06 16:15 51.50356 0.06677 18 ft 11 kts 279°
2026-05-06 16:15 51.50389 0.06584 24 ft 4 kts 261°
2026-05-06 16:15 51.50387 0.06584 22 ft 0 kts 253°
2026-05-06 16:15 51.50461 0.06566 27 ft 22 kts 335°
2026-05-06 16:16 51.50453 0.06347 27 ft 22 kts 242°
2026-05-06 16:16 51.50418 0.06118 27 ft 21 kts 272°
2026-05-06 16:16 51.50425 0.05884 24 ft 21 kts 274°
2026-05-06 16:16 51.50438 0.05659 24 ft 20 kts 276°
2026-05-06 16:17 51.50439 0.05441 24 ft 19 kts 271°
2026-05-06 16:17 51.50436 0.05229 24 ft 19 kts 276°
2026-05-06 16:17 51.50426 0.05140 27 ft 5 kts 197°
2026-05-06 16:17 51.50405 0.05134 25 ft 0 kts 217°
2026-05-06 16:18 51.50413 0.05127 26 ft 0 kts
2026-05-06 16:18 51.50419 0.05128 30 ft 1 kts
2026-05-06 16:18 51.50426 0.05128 30 ft 1 kts
2026-05-06 16:18 51.50428 0.05128 30 ft 0 kts